Flag for Finland Weather past 2 weeks in Kuopio, Finland

Now
27 °F

Light snow. Overcast.


Feels Like: 20 °F
Forecast: 24 / 28 °F
Wind: 6 mph from South

Location: Kuopio Airport

Current Time: Jan 25, 2015 at 8:51:57 PM

Latest Report: Jan 25, 2015 at 8:20 PM


Visibility: N/A

Pressure: 30.04 "Hg

Humidity: 93%

Dew point: 25 °F

Location of KuopioLocation

Historic Weather in Kuopio — Graph

°F

Kuopio temperature yesterday

Maximum temperature yesterday: 28 °F (at 10:20 PM)
Minimum temperature yesterday: 9 °F (at 12:20 AM)
Average temperature yesterday: 16 °F

Past Weeks' High & Low Weather Summary

 TemperatureHumidityPressure
High37 °F (Jan 17, 1:50 AM)100% (Jan 14, 6:50 PM)30.57 "Hg (Jan 14, 6:50 PM)
Low-13 °F (Jan 22, 6:50 PM)64% (Jan 19, 2:20 AM)29.00 "Hg (Jan 11, 3:50 AM)
Average14 °F86%29.74 "Hg
* Reported Jan 10 7:20 PM — Jan 25 7:50 PM, Kuopio, Weather by CustomWeather, © 2014

Note: Actual official high and low records may vary slightly from our data, if they occured in-between our weather recording intervals... More about our weather records

Advertising

Kuopio weather history for previous 24 hours

 ConditionsComfort  
Time TempWeatherWind HumidityBarometerVisibility
7:50 PM
Jan 25
27 °FLight snow. Mostly cloudy.6 mph93%30.04 "Hg6 mi
7:20 PM27 °FSleet. Overcast.7 mph93%30.04 "Hg4 mi
6:50 PM27 °FLight snow. Passing clouds.8 mph93%30.04 "Hg4 mi
6:20 PM27 °FSnow flurries. Passing clouds.8 mph93%30.04 "Hg5 mi
5:50 PM27 °FLight snow. Mostly cloudy.8 mph93%30.04 "Hg6 mi
5:20 PM27 °FLight snow. Overcast.8 mph93%30.04 "Hg6 mi
4:50 PM27 °FLight snow. Overcast.9 mph93%30.04 "HgN/A
4:20 PM27 °FLight snow. Overcast.9 mph93%30.01 "HgN/A
3:50 PM27 °FLight snow. Overcast.9 mph93%30.01 "HgN/A
3:20 PM27 °FLight mixture of precip. Overcast.9 mph93%30.01 "HgN/A
2:50 PM27 °FLight mixture of precip. Overcast.9 mph93%30.01 "HgN/A
2:20 PM27 °FSleet. Overcast.10 mph93%30.04 "HgN/A
1:50 PM27 °FLight snow. Overcast.13 mph93%30.04 "HgN/A
1:20 PM27 °FLight snow. Overcast.12 mph93%30.04 "Hg6 mi
12:50 PM27 °FLight mixture of precip. Low clouds.13 mph93%30.01 "HgN/A
12:20 PM27 °FLight snow. Low clouds.12 mph93%30.04 "HgN/A
11:50 AM27 °FScattered showers. Ice fog.12 mph93%30.04 "Hg2 mi
11:20 AM27 °FLight mixture of precip. Low clouds.10 mph93%30.04 "HgN/A
10:50 AM27 °FLight mixture of precip. Low clouds.12 mph93%30.04 "Hg4 mi
10:20 AM27 °FLight snow. Low clouds.12 mph93%30.04 "HgN/A
9:50 AM28 °FSnow flurries. Low clouds.10 mph86%30.01 "HgN/A
9:20 AM28 °FLow clouds.10 mph86%30.01 "HgN/A
8:50 AM28 °FLow clouds.12 mph86%30.01 "HgN/A
8:20 AM28 °FLow clouds.12 mph86%30.01 "HgN/A
7:50 AM28 °FLow clouds.13 mph86%29.98 "HgN/A
7:20 AM28 °FOvercast.12 mph93%29.98 "HgN/A
6:50 AM28 °FOvercast.12 mph93%29.98 "HgN/A
6:20 AM28 °FOvercast.12 mph93%29.98 "HgN/A
5:20 AM28 °FMostly cloudy.15 mph93%29.98 "HgN/A
4:50 AM28 °FMostly cloudy.12 mph93%29.98 "HgN/A
4:20 AM28 °FMostly cloudy.12 mph93%29.98 "HgN/A
3:50 AM28 °FMostly cloudy.14 mph93%29.98 "HgN/A
3:20 AM30 °FOvercast.15 mph86%29.98 "HgN/A
2:50 AM30 °FOvercast.13 mph86%29.98 "HgN/A
2:20 AM30 °FOvercast.15 mph86%29.98 "HgN/A
1:50 AM28 °FLow clouds.15 mph93%29.98 "HgN/A
1:20 AM28 °FLow clouds.16 mph93%29.98 "HgN/A
12:50 AM28 °FOvercast.15 mph93%29.98 "HgN/A
12:20 AM28 °FLow clouds.16 mph93%29.98 "HgN/A
11:20 PM
Jan 24
28 °FLow clouds.16 mph93%29.98 "HgN/A
10:50 PM28 °FLow clouds.16 mph93%29.95 "HgN/A
10:20 PM28 °FSprinkles. Mostly cloudy.15 mph93%29.95 "HgN/A
9:50 PM27 °FMostly cloudy.12 mph100%29.95 "HgN/A
9:20 PM27 °FLight snow. Low clouds.10 mph93%29.95 "HgN/A
8:50 PM27 °FLight snow. Low clouds.10 mph93%29.95 "Hg1 mi
8:20 PM25 °FLight snow. Low clouds.13 mph100%29.98 "Hg3 mi
Weather by CustomWeather, © 2014

See weather overviewHow to use our weather pages